Weather in Mende

France     44°31′13″N   3°30′20″E
temp.,
°C
wind,
m/s
gust,
m/s
humid.,
%
clouds,
%
prec.,
mm/h
press.,
hPa
HPBL,
m
1 march, mon
mon101:00+1e239527 0.0 102862
04:00+1e239333 0.0 102770
07:000e237816 0.0 102847
10:00+7ese26530 0.0 1027431
13:00+10se36500 0.0 1026816
16:00+10se375659 0.0 1025841
19:00+3ese228455 0.0 102635
22:00+2e238539 0.0 102856
2 march, tue
tue201:00+1ese226240 0.0 102937
04:00+2ese227853 0.0 102857
07:00+1ese226769 0.0 102945
10:00+7se274382 0.0 1029590
13:00+10se384044 0.0 1029788
16:00+9se37500 0.0 1028727
19:00+3ese22760 0.0 103043
22:00+2ese226219 0.0 103137
3 march, wed
wed301:00+1ese225425 0.0 103229
04:00+1e22630 0.0 103126
07:00+1ese226217 0.0 103128
10:00+8se124780 0.0 1031272
13:00+12s234370 0.0 1029790
16:00+12s22500 0.0 1026806
19:00+5se22820 0.0 102723
22:00+3ese12924 0.0 102723
4 march, thu
thu401:00+2ese22822 0.0 102626
04:00+1ese12750 0.0 102522
07:00+1se12791 0.0 102322
10:00+7s23730 0.0 1022362
13:00+10ssw237027 0.0 1020628
16:00+10sw236941 0.0 1017791
19:00+5s129464 0.0 101838
22:00+4se1197100 0.0 101822
5 march, fri
fri501:00+3se1198100 0.0 101722
04:00+4sse1196100 0.0 1016114
07:00+4sse0193100 0.0 101687
10:00+6sse1181100 0.0 1015324
13:00+10ssw2166100 0.0 1015723
16:00+9sw1276100 1.2 1014676
19:00+5e1194100 3.1 101539
22:00+5ene1194100 0.3 101765